#timestamp,LO_Frequency,Hit 
1505239215.2,286046985.4,N
1505239235.9,286046984.5,N
1505239255.7,286046984.4,N
1505239275.6,286046985.5,N
1505239295.4,286046987.1,N
1505239315.2,286046989.4,N
1505239335.1,286046989.8,N
1505239336.0,286046989.8,N
1505239355.8,286046988.2,N
1505239375.6,286046984.5,P
1505239395.5,286046994.1,N
1505239415.3,286046996.4,N
1505239435.1,286046994.9,N
1505239455.9,286047002.7,N
1505239475.7,286047004.5,N
1505239495.5,286047010.6,N
1505239515.4,286047014.0,N
1505239535.2,286047012.5,N
1505239555.0,286047015.8,N
1505239555.9,286047015.8,N
1505239575.7,286047021.7,N
1505239595.6,286047017.5,N
1505239615.4,286047019.7,N
1505239635.2,286047022.0,N
1505239655.1,286047020.3,N
1505239656.0,286047020.3,N
1505239675.8,286047021.1,N
1505239695.6,286047020.4,N
1505239715.5,286047021.6,N
1505239735.3,286047025.0,N
1505239755.1,286047023.9,N
1505239775.9,286047025.5,N
1505239795.7,286047025.4,N
1505239815.5,286047022.5,N
1505239835.4,286047021.2,N
1505239855.2,286047019.4,N
1505239875.0,286047018.2,N
1505239875.9,286047018.2,N
1505239895.8,286047016.4,N
1505239915.6,286047018.1,N
1505239935.4,286047019.4,N
1505239955.3,286047025.0,P
1505239975.1,286047005.0,N
1505239976.0,286047005.0,N
1505239995.8,286047006.5,N
1505240015.7,286047008.2,N
1505240035.5,286047011.2,N
1505240055.3,286047009.5,N
1505240075.1,286047010.9,N
1505240095.9,286047012.6,N
1505240115.7,286047011.5,N
1505240135.5,286047011.7,N
1505240155.4,286047013.3,N
1505240175.2,286047013.6,N
1505240195.0,286047012.3,N
1505240195.9,286047012.3,N
1505240215.8,286047008.6,N
1505240235.6,286047006.9,N
1505240255.4,286047006.3,N
1505240275.3,286047006.1,N
1505240295.1,286047004.9,N
1505240296.0,286047004.9,N
1505240315.8,286047010.5,N
1505240335.7,286047009.1,N
1505240355.5,286047003.9,N
1505240375.3,286047000.4,N
1505240395.1,286046996.4,N
1505240415.9,286046994.5,N
1505240435.7,286046992.6,N
1505240455.5,286046990.4,N
1505240475.4,286046997.5,N
1505240495.2,286046994.9,N
1505240515.0,286046996.1,N
1505240515.9,286046996.1,N
1505240535.8,286046994.7,N
1505240555.6,286046990.1,N
1505240575.4,286046993.6,N
1505240595.3,286046994.8,N
1505240615.1,286046986.9,N
1505240616.0,286046986.9,N
1505240635.8,286046986.3,N
1505240655.7,286046984.3,N
1505240675.5,286046982.0,N
1505240695.3,286046982.4,N
1505240715.2,286046982.4,N
1505240735.9,286046983.4,N
1505240755.7,286046983.1,N
1505240775.5,286046984.6,N
1505240795.4,286046983.9,N
1505240815.2,286046983.6,N
1505240835.0,286046982.5,N
1505240835.9,286046982.5,N
1505240855.8,286046983.3,N
1505240875.6,286046984.6,N
1505240895.4,286046984.2,N
1505240915.3,286046983.7,N
1505240935.1,286046984.7,N
1505240936.0,286046984.7,N
1505240955.8,286046985.0,N
1505240975.7,286046982.4,P
1505240995.5,286046993.4,N
1505241015.3,286046991.5,N
1505241035.2,286046994.6,N
1505241055.9,286046995.6,N
1505241075.7,286046993.8,N
1505241095.6,286046993.4,N
1505241115.4,286046987.0,P
1505241135.2,286047000.0,N
1505241155.1,286047002.7,N
1505241156.0,286047002.7,N
1505241175.8,286046996.5,N
1505241195.6,286046996.2,N
1505241215.5,286046995.3,N
1505241235.3,286046997.3,N
1505241255.1,286046999.5,N
1505241275.9,286046996.5,N
1505241295.7,286046999.3,N
1505241315.5,286046997.0,N
1505241335.3,286047002.3,N
1505241355.2,286047010.6,N
1505241375.0,286047013.7,N
1505241375.9,286047013.7,N
1505241395.7,286047014.7,N
1505241415.6,286047017.4,N
1505241435.4,286047019.3,N
1505241455.2,286047021.9,N
1505241475.1,286047024.9,N
1505241476.0,286047024.9,N
1505241495.8,286047020.7,N
1505241515.6,286047019.4,N
1505241535.5,286047021.9,N
1505241555.3,286047021.1,N
1505241575.1,286047023.5,N
1505241595.9,286047024.7,N
1505241615.7,286047025.6,N
1505241635.5,286047029.1,N
1505241655.3,286047032.6,N
1505241675.2,286047031.2,N
1505241695.0,286047031.9,N
1505241695.9,286047031.9,N
1505241715.7,286047034.5,N
1505241735.6,286047030.2,N
1505241755.4,286047031.2,N
1505241775.2,286047031.7,N
1505241795.1,286047030.1,N
1505241796.0,286047030.1,N
1505241815.8,286047027.3,N
1505241835.6,286047027.0,P
1505241855.5,286047006.6,P
1505241875.3,286047003.3,N
1505241895.1,286047005.8,N
1505241915.9,286047007.3,N
1505241935.7,286047009.2,N
1505241955.5,286047007.1,N
1505241975.4,286047006.2,N
1505241995.2,286047005.0,N
1505242015.0,286047007.0,N
1505242015.9,286047007.0,N
1505242035.8,286047006.6,N
1505242055.6,286047008.9,N
1505242075.4,286047010.0,N
1505242095.3,286047006.5,N
1505242115.1,286047009.1,N
1505242116.0,286047009.1,N
1505242135.8,286047006.2,N
1505242155.6,286047010.7,N
1505242175.5,286047007.3,N
1505242195.3,286047007.2,N
1505242215.1,286047006.8,N
1505242235.9,286047002.9,N
1505242255.7,286047003.6,N
1505242275.5,286047003.0,N
1505242295.4,286047000.8,N
1505242315.2,286047000.5,N
1505242335.0,286046993.7,N
1505242335.9,286046993.7,N
1505242355.8,286046992.8,N
1505242375.6,286046990.9,N
1505242395.4,286046989.9,N
1505242415.3,286046985.8,N
1505242435.1,286046987.8,N
1505242436.0,286046987.8,N
1505242455.8,286046987.1,N
1505242475.7,286046988.8,N
1505242495.5,286046991.4,N
1505242515.3,286046994.7,N
1505242535.1,286046994.4,N
1505242555.9,286046994.1,N
1505242575.7,286046992.9,N
1505242595.5,286046991.1,N
1505242615.4,286046989.4,N
1505242635.2,286046989.9,N
1505242655.0,286046985.3,N
1505242655.9,286046985.3,N
1505242675.8,286046988.0,N
1505242695.6,286046988.3,N
1505242715.4,286046986.5,N
1505242735.3,286046981.2,N
1505242755.1,286046978.4,P
1505242775.8,286046985.0,N
1505242795.7,286046982.5,P
